| time (UTC) | temp C | wind direction | speed KPH | gust KPH | rain 1hr cm | rain 24hr cm | rain mn cm | humidity % | barometer mb |
| 20260903104556 | 23 | 216 | 0.0 | 4.8 | 0.00 | 0.08 | 0.08 | 95 | 1012.7 |
| 20260903103052 | 23 | 161 | 1.6 | 8.0 | 0.00 | 0.08 | 0.08 | 95 | 1012.7 |
| 20260903101554 | 23 | 147 | 0.0 | 6.4 | 0.00 | 0.08 | 0.08 | 95 | 1012.6 |
| 20260903100048 | 23 | 97 | 0.0 | 6.4 | 0.00 | 0.08 | 0.08 | 95 | 1012.6 |
| 20260903094547 | 23 | 205 | 0.0 | 4.8 | 0.03 | 0.08 | 0.08 | 95 | 1012.7 |
| 20260903093104 | 23 | 119 | 0.0 | 4.8 | 0.05 | 0.08 | 0.08 | 95 | 1012.6 |
| 20260903091547 | 23 | 88 | 0.0 | 3.2 | 0.05 | 0.08 | 0.08 | 95 | 1012.7 |
| 20260903090051 | 23 | 140 | 0.0 | 8.0 | 0.08 | 0.08 | 0.08 | 94 | 1012.7 |
| 20260903084545 | 23 | 110 | 1.6 | 8.0 | 0.05 | 0.05 | 0.05 | 94 | 1012.5 |
| 20260903083044 | 23 | 111 | 3.2 | 9.7 | 0.03 | 0.03 | 0.03 | 94 | 1012.4 |
| 20260903081543 | 23 | 149 | 1.6 | 11.3 | 0.03 | 0.03 | 0.03 | 93 | 1012.3 |
| 20260903080041 | 24 | 116 | 3.2 | 11.3 | 0.00 | 0.00 | 0.00 | 92 | 1012.3 |
| 20260903074540 | 24 | 86 | 3.2 | 11.3 | 0.00 | 0.00 | 0.00 | 91 | 1012.1 |
| 20260903073040 | 24 | 120 | 1.6 | 11.3 | 0.00 | 0.00 | 0.00 | 90 | 1012.0 |
| 20260903071537 | 25 | 150 | 1.6 | 12.9 | 0.00 | 0.00 | 0.00 | 88 | 1012.1 |
| 20260903070029 | 25 | 100 | 4.8 | 12.9 | 0.00 | 0.00 | 0.00 | 88 | 1012.4 |
| 20260903064526 | 25 | 168 | 1.6 | 11.3 | 0.00 | 0.00 | 0.00 | 86 | 1012.4 |
| 20260903063046 | 26 | 198 | 3.2 | 11.3 | 0.00 | 0.00 | 0.00 | 84 | 1012.2 |
| 20260903061521 | 26 | 86 | 3.2 | 9.7 | 0.00 | 0.00 | 0.00 | 82 | 1012.2 |
| 20260903060020 | 26 | 96 | 4.8 | 12.9 | 0.00 | 0.00 | 0.00 | 80 | 1012.3 |
| 20260903054517 | 26 | 128 | 1.6 | 12.9 | 0.00 | 0.00 | 0.00 | 80 | 1012.4 |
| 20260903053013 | 26 | 113 | 1.6 | 9.7 | 0.00 | 0.00 | 0.00 | 79 | 1012.6 |
| 20260903051511 | 26 | 288 | 3.2 | 11.3 | 0.00 | 0.00 | 0.00 | 79 | 1012.7 |
| 20260903050010 | 26 | 98 | 1.6 | 9.7 | 0.00 | 0.00 | 0.00 | 79 | 1012.9 |
| 20260903044509 | 27 | 193 | 3.2 | 16.1 | 0.00 | 0.00 | 0.00 | 77 | 1013.0 |
| 20260903043008 | 27 | 259 | 1.6 | 9.7 | 0.00 | 0.00 | 0.00 | 76 | 1013.1 |
| 20260903041514 | 27 | 109 | 1.6 | 6.4 | 0.00 | 0.00 | 0.00 | 75 | 1013.1 |
| 20260903040009 | 27 | 148 | 4.8 | 11.3 | 0.00 | 0.00 | 0.00 | 74 | 1013.2 |
| 20260903034515 | 27 | 166 | 3.2 | 11.3 | 0.00 | 0.00 | 0.00 | 74 | 1013.1 |
| 20260903033006 | 28 | 123 | 1.6 | 9.7 | 0.00 | 0.00 | 0.00 | 73 | 1012.9 |
| 20260903031506 | 28 | 148 | 0.0 | 4.8 | 0.00 | 0.00 | 0.00 | 71 | 1013.0 |
| 20260903030008 | 28 | 134 | 3.2 | 11.3 | 0.00 | 0.00 | 0.00 | 70 | 1013.0 |
| 20260903024505 | 28 | 117 | 0.0 | 9.7 | 0.00 | 0.00 | 0.00 | 69 | 1012.8 |
| 20260903023004 | 29 | 140 | 1.6 | 8.0 | 0.00 | 0.00 | 0.00 | 67 | 1012.8 |
| 20260903021511 | 29 | 98 | 1.6 | 9.7 | 0.00 | 0.00 | 0.00 | 66 | 1012.6 |
| 20260903020003 | 30 | 113 | 3.2 | 11.3 | 0.00 | 0.00 | 0.00 | 65 | 1012.3 |
| 20260903014502 | 30 | 95 | 3.2 | 12.9 | 0.00 | 0.00 | 0.00 | 63 | 1012.1 |
| 20260903013002 | 31 | 120 | 1.6 | 12.9 | 0.00 | 0.00 | 0.00 | 61 | 1011.7 |
| 20260903011502 | 32 | 110 | 0.0 | 11.3 | 0.00 | 0.00 | 0.00 | 59 | 1011.4 |
| 20260903010004 | 32 | 117 | 3.2 | 12.9 | 0.00 | 0.00 | 0.00 | 56 | 1011.3 |
| 20260903004501 | 32 | 133 | 3.2 | 12.9 | 0.00 | 0.00 | 0.00 | 55 | 1011.2 |
| 20260903003059 | 33 | 105 | 3.2 | 11.3 | 0.00 | 0.00 | 0.00 | 54 | 1011.1 |
| 20260903001559 | 33 | 114 | 3.2 | 9.7 | 0.00 | 0.00 | 0.00 | 53 | 1011.1 |
| 20260903000059 | 33 | 83 | 3.2 | 14.5 | 0.00 | 0.00 | 0.00 | 54 | 1011.0 |
| 20260902234557 | 33 | 99 | 0.0 | 11.3 | 0.00 | 0.00 | 0.00 | 53 | 1010.9 |
| 20260902233059 | 34 | 105 | 3.2 | 11.3 | 0.00 | 0.00 | 0.00 | 52 | 1010.7 |
| 20260902231605 | 34 | 70 | 1.6 | 9.7 | 0.00 | 0.00 | 0.00 | 52 | 1010.7 |
| 20260902230057 | 34 | 137 | 1.6 | 11.3 | 0.00 | 0.00 | 0.00 | 53 | 1010.8 |
| 20260902224601 | 34 | 97 | 3.2 | 8.0 | 0.00 | 0.00 | 0.00 | 55 | 1010.7 |
| 20260902223055 | 35 | 44 | 1.6 | 6.4 | 0.00 | 0.00 | 0.00 | 53 | 1010.7 |
| 20260902221554 | 36 | 181 | 1.6 | 8.0 | 0.00 | 0.00 | 0.00 | 52 | 1010.8 |
| 20260902220054 | 37 | 176 | 1.6 | 14.5 | 0.00 | 0.00 | 0.00 | 46 | 1010.6 |
| 20260902214552 | 37 | 307 | 1.6 | 11.3 | 0.00 | 0.00 | 0.00 | 47 | 1010.6 |
| 20260902213055 | 38 | 110 | 3.2 | 8.0 | 0.00 | 0.00 | 0.00 | 45 | 1010.8 |
| 20260902211555 | 38 | 72 | 0.0 | 11.3 | 0.00 | 0.00 | 0.00 | 45 | 1010.9 |
| 20260902210047 | 38 | 316 | 3.2 | 11.3 | 0.00 | 0.00 | 0.00 | 45 | 1010.9 |
| 20260902204542 | 38 | 94 | 3.2 | 8.0 | 0.00 | 0.00 | 0.00 | 46 | 1011.2 |
| 20260902203038 | 37 | 139 | 1.6 | 9.7 | 0.00 | 0.00 | 0.00 | 47 | 1011.5 |
| 20260902201537 | 37 | 110 | 1.6 | 6.4 | 0.00 | 0.00 | 0.00 | 47 | 1011.7 |
| 20260902200034 | 37 | 82 | 3.2 | 8.0 | 0.00 | 0.00 | 0.00 | 48 | 1012.2 |
| 20260902194529 | 37 | 167 | 1.6 | 9.7 | 0.00 | 0.00 | 0.00 | 47 | 1012.3 |
| 20260902193026 | 37 | 4 | 1.6 | 9.7 | 0.00 | 0.00 | 0.00 | 46 | 1012.5 |
| 20260902191534 | 37 | 60 | 1.6 | 8.0 | 0.00 | 0.00 | 0.00 | 49 | 1012.8 |
| 20260902190019 | 36 | 34 | 1.6 | 6.4 | 0.00 | 0.00 | 0.00 | 48 | 1013.0 |
| 20260902184515 | 36 | 23 | 3.2 | 9.7 | 0.00 | 0.00 | 0.00 | 50 | 1013.3 |
| 20260902183014 | 35 | 84 | 1.6 | 9.7 | 0.00 | 0.00 | 0.00 | 51 | 1013.4 |
| 20260902181509 | 35 | 165 | 3.2 | 9.7 | 0.00 | 0.00 | 0.00 | 51 | 1013.7 |
| 20260902180008 | 35 | 41 | 0.0 | 9.7 | 0.00 | 0.00 | 0.00 | 52 | 1014.3 |
| 20260902174506 | 35 | 162 | 1.6 | 8.0 | 0.00 | 0.00 | 0.00 | 53 | 1014.6 |
| 20260902173001 | 35 | 103 | 0.0 | 8.0 | 0.00 | 0.00 | 0.00 | 54 | 1014.7 |
| 20260902171600 | 35 | 290 | 3.2 | 9.7 | 0.00 | 0.00 | 0.00 | 51 | 1014.9 |
| 20260902170059 | 35 | 130 | 1.6 | 6.4 | 0.00 | 0.00 | 0.00 | 56 | 1015.3 |
| 20260902164556 | 34 | 236 | 1.6 | 6.4 | 0.00 | 0.00 | 0.00 | 57 | 1015.4 |
| 20260902163101 | 33 | 304 | 1.6 | 4.8 | 0.00 | 0.00 | 0.00 | 59 | 1015.5 |
| 20260902161555 | 33 | 110 | 1.6 | 4.8 | 0.00 | 0.00 | 0.00 | 59 | 1015.6 |
| 20260902160055 | 33 | 175 | 0.0 | 4.8 | 0.00 | 0.00 | 0.00 | 61 | 1015.6 |
| 20260902154544 | 32 | 151 | 0.0 | 4.8 | 0.00 | 0.00 | 0.00 | 63 | 1015.6 |
| 20260902153042 | 31 | 131 | 1.6 | 6.4 | 0.00 | 0.00 | 0.00 | 66 | 1015.6 |
| 20260902151540 | 31 | 166 | 1.6 | 4.8 | 0.00 | 0.00 | 0.00 | 67 | 1015.6 |
| 20260902150038 | 31 | 147 | 0.0 | 4.8 | 0.00 | 0.00 | 0.00 | 68 | 1015.5 |
| 20260902144537 | 30 | 288 | 0.0 | 4.8 | 0.00 | 0.00 | 0.00 | 69 | 1015.5 |
| 20260902143031 | 30 | 132 | 0.0 | 4.8 | 0.00 | 0.00 | 0.00 | 72 | 1015.5 |
| 20260902141528 | 29 | 84 | 1.6 | 4.8 | 0.00 | 0.00 | 0.00 | 74 | 1015.4 |
| 20260902140026 | 28 | 133 | 3.2 | 6.4 | 0.00 | 0.00 | 0.00 | 77 | 1015.4 |
| 20260902134534 | 27 | 134 | 1.6 | 4.8 | 0.00 | 0.00 | 0.00 | 80 | 1015.3 |
| 20260902133024 | 26 | 253 | 0.0 | 3.2 | 0.00 | 0.00 | 0.00 | 81 | 1015.2 |
| 20260902131523 | 26 | 215 | 0.0 | 4.8 | 0.00 | 0.00 | 0.00 | 81 | 1015.2 |
| 20260902130020 | 25 | 110 | 1.6 | 4.8 | 0.00 | 0.00 | 0.00 | 82 | 1015.3 |
| 20260902124521 | 25 | 139 | 0.0 | 3.2 | 0.00 | 0.00 | 0.00 | 83 | 1015.2 |
| 20260902123020 | 24 | 186 | 0.0 | 0.0 | 0.00 | 0.00 | 0.00 | 83 | 1015.0 |
| 20260902121517 | 24 | 128 | 0.0 | 0.0 | 0.00 | 0.00 | 0.00 | 84 | 1015.0 |
| 20260902120017 | 24 | 128 | 0.0 | 0.0 | 0.00 | 0.00 | 0.00 | 83 | 1015.1 |
| 20260902114516 | 24 | 128 | 0.0 | 0.0 | 0.00 | 0.00 | 0.00 | 83 | 1015.0 |
| 20260902113030 | 24 | 127 | 0.0 | 0.0 | 0.00 | 0.00 | 0.00 | 82 | 1014.9 |
| 20260902111519 | 25 | 128 | 0.0 | 0.0 | 0.00 | 0.00 | 0.00 | 82 | 1015.0 |
| 20260902110013 | 25 | 127 | 0.0 | 0.0 | 0.00 | 0.00 | 0.00 | 82 | 1014.9 |